Change the Weather History Date:

Tuesday, October 9, 2012

  Actual Average Record
Temperature  
Mean Temperature 55 °F 57 °F  
Max Temperature 67 °F 66 °F 87 °F (2010)
Min Temperature 43 °F 48 °F 32 °F (1964)
Degree Days  
Heating Degree Days 10 9  
Month to date heating degree days 95 70  
Since 1 July heating degree days 168 152  
Cooling Degree Days 0 1  
Month to date cooling degree days 1 9  
Year to date cooling degree days 1468 1038  
Growing Degree Days 5 (Base 50)    
Moisture  
Dew Point 37 °F    
Average Humidity 55    
Maximum Humidity 86    
Minimum Humidity 23    
Precipitation  
Precipitation 0.18 in 0.11 in 2.27 in (1954)
Month to date precipitation 0.31 0.90  
Year to date precipitation 21.29 30.76  
Sea Level Pressure  
Sea Level Pressure 29.91 in    
Wind  
Wind Speed 14 mph (SW)    
Max Wind Speed 28 mph    
Max Gust Speed 38 mph    
Visibility 9 miles    
Events Rain    
T = Trace of Precipitation, MM = Missing Value Source: NWS Daily Summary

Daily Weather History Graph

Daily Weather History Graph

Search for Another Location

Airport or City:

Trip Planner

Search our weather history database for the weather conditions in past years. The results will help you decide how hot, cold, wet, or windy it might be!

Date:

Astronomy

Oct. 09, 2012 Rise Set
Actual Time 6:57 AM CDT 6:18 PM CDT
Civil Twilight 6:29 AM CDT 6:46 PM CDT
Nautical Twilight 5:57 AM CDT 7:18 PM CDT
Astronomical Twilight 5:24 AM CDT 7:50 PM CDT
Moon 12:28 AM CDT (10/9) 2:50 PM CDT (10/9)
Length of Visible Light 12h 17m
Length of Day
11h 21m
Last Quarter, 36% of the Moon is Illuminated
Oct 9
Last Quarter
Oct 15
New
Oct 21
First Quarter
Oct 29
Full
Nov 6
Last Quarter

Hourly Weather History & Observations

Time (CDT) Temp. Windchill Dew Point Humidity Pressure Visibility Wind Dir Wind Speed Gust Speed Precip Events Conditions
12:51 AM 48.9 °F - 30.9 °F 50% 30.01 in 10.0 mi South 10.4 mph - N/A   Mostly Cloudy
1:51 AM 48.9 °F - 32.0 °F 52% 30.01 in 10.0 mi South 12.7 mph 18.4 mph N/A   Mostly Cloudy
2:51 AM 48.2 °F - 32.0 °F 54% 29.99 in 10.0 mi South 10.4 mph - N/A   Overcast
3:51 AM 46.9 °F - 33.1 °F 59% 30.00 in 10.0 mi SSW 9.2 mph - N/A   Mostly Cloudy
4:51 AM 46.9 °F - 33.1 °F 59% 29.99 in 10.0 mi South 9.2 mph - N/A   Scattered Clouds
5:51 AM 45.0 °F 39.7 °F 34.0 °F 65% 29.99 in 10.0 mi South 10.4 mph - N/A   Mostly Cloudy
6:51 AM 44.6 °F 38.8 °F 33.8 °F 66% 29.98 in 10.0 mi South 11.5 mph 20.7 mph N/A   Mostly Cloudy
7:51 AM 46.9 °F - 35.1 °F 63% 29.98 in 10.0 mi South 12.7 mph 20.7 mph N/A   Mostly Cloudy
8:51 AM 50.0 °F - 36.0 °F 59% 29.97 in 10.0 mi South 13.8 mph 21.9 mph N/A   Mostly Cloudy
9:51 AM 54.0 °F - 37.0 °F 53% 29.96 in 10.0 mi SSW 16.1 mph 25.3 mph N/A   Mostly Cloudy
10:51 AM 59.0 °F - 37.0 °F 44% 29.93 in 10.0 mi SSW 17.3 mph 31.1 mph N/A   Mostly Cloudy
11:51 AM 63.0 °F - 37.0 °F 38% 29.91 in 10.0 mi SSW 16.1 mph 28.8 mph N/A   Mostly Cloudy
12:51 PM 64.0 °F - 37.9 °F 38% 29.87 in 10.0 mi SSW 20.7 mph 27.6 mph N/A   Mostly Cloudy
1:51 PM 66.9 °F - 36.0 °F 32% 29.84 in 10.0 mi SSW 21.9 mph 32.2 mph N/A   Mostly Cloudy
2:51 PM 66.0 °F - 36.0 °F 33% 29.83 in 10.0 mi SSW 20.7 mph 33.4 mph N/A   Overcast
3:51 PM 64.9 °F - 36.0 °F 34% 29.83 in 10.0 mi SSW 21.9 mph 31.1 mph N/A   Overcast
4:51 PM 64.9 °F - 37.0 °F 36% 29.82 in 10.0 mi SSW 18.4 mph 26.5 mph N/A   Overcast
5:51 PM 64.0 °F - 37.0 °F 37% 29.82 in 10.0 mi SSW 13.8 mph 26.5 mph N/A   Overcast
6:51 PM 63.0 °F - 37.9 °F 40% 29.82 in 10.0 mi SSW 11.5 mph 21.9 mph N/A   Overcast
7:51 PM 63.0 °F - 39.0 °F 41% 29.81 in 10.0 mi SSW 17.3 mph 24.2 mph N/A   Overcast
8:18 PM 57.2 °F - 41.0 °F 55% 29.83 in 10.0 mi NW 13.8 mph 29.9 mph N/A   Overcast
8:31 PM 55.4 °F - 42.8 °F 63% 29.85 in 10.0 mi NW 23.0 mph 29.9 mph N/A   Overcast
8:51 PM 53.1 °F - 39.0 °F 59% 29.87 in 10.0 mi NW 20.7 mph 32.2 mph N/A   Overcast
9:51 PM 46.0 °F 40.2 °F 41.0 °F 83% 29.92 in 8.0 mi NW 12.7 mph - 0.03 in Rain Light Rain
10:51 PM 44.1 °F 38.6 °F 39.9 °F 85% 29.93 in 5.0 mi NW 10.4 mph 21.9 mph 0.06 in Rain Light Rain
11:05 PM 44.6 °F 39.7 °F 39.2 °F 81% 29.92 in 6.0 mi WNW 9.2 mph - 0.02 in Rain Light Rain
11:31 PM 44.6 °F 41.4 °F 39.2 °F 81% 29.93 in 5.0 mi West 5.8 mph - 0.06 in Rain Light Rain
11:51 PM 43.0 °F 39.5 °F 39.0 °F 86% 29.94 in 5.0 mi WSW 5.8 mph - 0.08 in Rain Light Rain